Location: ?????
(33.6267°N, 35.4675°E)
Time: 12:11:38
(UTC+00:00)

ATLAS 5 CENTAUR R/B - Pass Details

Date: 26 February 2020
Orbit: 548 x 1111 km, 63.4° (Epoch: 30 March)

Event Time Altitude Azimuth Distance (km) Brightness Sun altitude
Rises 03:04:47 0° 178° (S) 2,697 4.9 -14.6°
Reaches altitude 10° 03:07:20 10° 161° (SSE) 1,814 4.2 -14.0°
Maximum altitude 03:10:24 21° 111° (ESE) 1,278 4.1 -13.4°
Drops below altitude 10° 03:13:36 10° 61° (ENE) 1,909 5.0 -12.7°
Sets 03:16:21 0° 46° (NE) 2,884 5.7 -12.2°
